CHINASAT 19

导读

中星19号(CHINASAT 19)是中国于2022年11月5日在西昌卫星发射中心,通过长征三号乙增强型运载火箭成功发射的高通量通信卫星,由中国空间技术研究院抓总研制,采用东方红四号增强型卫星平台,定点于东经163度地球静止轨道。它配备C、Ku和Ka多频段通信载荷,覆盖中国东部、东南亚及北美太平洋航线,提供高速通信与互联网接入,服务远洋运输和航空通信,是我国高通量卫星网络的重要延伸,设计寿命15年。

Basic Information
目录编号:
54230
目录名称:
CHINASAT 19
国际标识:
2022-148A
轨道中心:
EARTH
卫星名称:
CHINASAT 19
卫星全名:
--
卫星状态:
在轨 (已飞行1360 天)
发射日期:
2022-11-05 UTC
国别 :
中国 (CN)
星等 :
--
Orbit Information
数据来源 国际轨道数据 AOE轨道数据
星历时间 2026-07-26T23:19:37+0800
21小时前
查看轨道信息
2026-07-20T23:00:00+0800
6天前
查看轨道信息
半长轴 42164.504km 42164.644km
偏心率 0.0003496 0.0003318
轨道倾角 0.021° 0.021°
近地点辐角 54.823° 70.322°
升交点赤经 85.237° 66.923°
平近点角 197.364° 189.331°
近地点 35771.626km 35772.516km
远地点 35801.108km 35800.498km
周期 1436.085分钟 1436.092分钟
每日圈数 1.002726 1.002721
Detailed Information
使用方式:
暂无
2D Orbit Map
3D Orbit Map
Orbit Altitude Analysis Chart
Orbit Inclination Analysis Chart
Orbit Comprehensive Analysis Chart
View Comprehensive Chart